Flag for Switzerland Weather past 2 weeks in Reinach, Basel-Land, Switzerland

Now
47 °F

Overcast.


Feels Like: 45 °F
Forecast: 34 / 61 °F
Wind: 5 mph from West

Location: Bale-Mulhouse

Current Time: Apr 28, 2015 at 1:17:43 PM

Latest Report: Apr 28, 2015 at 12:00 PM


Visibility: 6 mi

Pressure: 30.09 "Hg

Humidity: 84%

Dew point: 42 °F

Location of ReinachLocation

Historic Weather in Reinach — Graph

°F

Reinach temperature yesterday

Maximum temperature yesterday: 69 °F (at 4:00 PM)
Minimum temperature yesterday: 52 °F (at 6:00 AM)
Average temperature yesterday: 59 °F

Past Weeks' High & Low Weather Summary

 TemperatureHumidityPressure
High79 °F (Apr 15, 4:00 PM)98% (Apr 26, 6:00 AM)30.49 "Hg (Apr 26, 6:00 AM)
Low32 °F (Apr 19, 7:00 AM)19% (Apr 24, 7:00 PM)29.47 "Hg (Apr 27, 4:00 PM)
Average56 °F65%30.06 "Hg
* Reported Apr 13 12:00 Noon — Apr 28 12:00 Noon, Reinach, Weather by CustomWeather, © 2015

Note: Actual official high and low records may vary slightly from our data, if they occured in-between our weather recording intervals... More about our weather records

Advertising

Reinach weather history for previous 24 hours

 ConditionsComfort  
Time TempWeatherWind HumidityBarometerVisibility
12:00 PM
Tue, Apr 28
47 °FOvercast.5 mph84%30.09 "Hg6 mi
11:00 AM47 °FOvercast.10 mph89%30.06 "Hg4 mi
10:00 AM45 °FLight rain. Low clouds.5 mph93%30.03 "Hg2 mi
9:00 AM45 °FLight rain. Overcast.12 mph92%30.00 "Hg3 mi
8:00 AM46 °FLight rain. Overcast.12 mph91%29.96 "Hg3 mi
7:00 AM46 °FLight rain. Overcast.12 mph92%29.91 "Hg4 mi
6:00 AM46 °FLight rain. Low clouds.12 mph94%29.87 "Hg5 mi
5:00 AM47 °FLight rain. Low clouds.8 mph95%29.84 "Hg5 mi
4:00 AM47 °FHeavy rain. Low clouds.3 mph96%29.82 "Hg2 mi
3:00 AM47 °FLight rain. Low clouds.7 mph96%29.79 "Hg6 mi
2:00 AM49 °FHeavy rain. Low clouds.10 mph96%29.75 "Hg2 mi
1:00 AM49 °FHeavy rain. Low clouds.12 mph96%29.72 "Hg2 mi
12:00 AM51 °FRain. Low clouds.14 mph96%29.67 "Hg3 mi
10:00 PM
Mon, Apr 27
54 °FLight rain. Low clouds.13 mph94%29.61 "Hg4 mi
9:00 PM56 °FLight rain. Low clouds.10 mph95%29.58 "Hg5 mi
8:00 PM57 °FThundershowers. Overcast.14 mph91%29.55 "Hg4 mi
7:00 PM60 °FLight rain. Overcast.10 mph79%29.53 "Hg7 mi
6:00 PM62 °FThundershowers. Overcast.13 mph76%29.50 "Hg6 mi
5:00 PM65 °FOvercast.13 mph69%29.50 "Hg7 mi
4:00 PM69 °FOvercast.12 mph63%29.47 "Hg11 mi
3:00 PM68 °FPartly sunny.9 mph64%29.50 "Hg11 mi
2:00 PM66 °FPartly sunny.7 mph66%29.50 "Hg11 mi
1:00 PM64 °FOvercast.6 mph74%29.55 "Hg11 mi
Weather by CustomWeather, © 2015

See weather overviewHow to use our weather pages